Time,TemperatureF,DewpointF,PressureIn,WindDirection,WindDirectionDegrees,WindSpeedMPH,WindSpeedGustMPH,Humidity,HourlyPrecipIn,Conditions,Clouds,dailyrainin,SoftwareType,DateUTC
2013-07-19 00:01:00,68.2,64.2,30.04,North,353,0.0,0.0,87,0.00,,FEW100,0.00,VWS V14.01,2013-07-19 04:01:00,
2013-07-19 00:02:00,68.2,64.2,30.04,North,353,0.0,0.0,87,0.00,,FEW100,0.00,VWS V14.01,2013-07-19 04:02:00,
2013-07-19 00:07:00,68.2,64.2,30.04,North,353,0.0,0.0,87,0.00,,FEW100,0.00,VWS V14.01,2013-07-19 04:07:00,
2013-07-19 00:12:00,68.2,64.2,30.04,North,353,0.0,0.0,87,0.00,,FEW100,0.00,VWS V14.01,2013-07-19 04:12:00,
2013-07-19 00:17:00,68.2,64.2,30.04,North,353,0.0,0.0,87,0.00,,FEW100,0.00,VWS V14.01,2013-07-19 04:17:00,
2013-07-19 00:22:00,68.2,64.2,30.04,North,353,0.0,0.0,87,0.00,,FEW100,0.00,VWS V14.01,2013-07-19 04:22:00,
2013-07-19 00:27:00,68.0,64.3,30.04,North,353,0.0,0.0,88,0.00,,FEW100,0.00,VWS V14.01,2013-07-19 04:27:00,
2013-07-19 00:32:00,67.8,64.1,30.04,North,353,0.0,0.0,88,0.00,,FEW100,0.00,VWS V14.01,2013-07-19 04:32:00,
2013-07-19 00:37:00,67.8,64.1,30.04,North,353,0.0,0.0,88,0.00,,FEW100,0.00,VWS V14.01,2013-07-19 04:37:00,
2013-07-19 00:42:00,67.6,64.0,30.04,North,353,0.0,0.0,88,0.00,,CLR,0.00,VWS V14.01,2013-07-19 04:42:00,
2013-07-19 00:47:00,67.6,64.0,30.04,North,353,0.0,0.0,88,0.00,,CLR,0.00,VWS V14.01,2013-07-19 04:47:00,
2013-07-19 00:52:00,67.6,64.3,30.04,North,353,0.0,0.0,89,0.00,,CLR,0.00,VWS V14.01,2013-07-19 04:52:00,
2013-07-19 00:57:00,67.6,64.3,30.04,North,353,0.0,0.0,89,0.00,,CLR,0.00,VWS V14.01,2013-07-19 04:57:00,
2013-07-19 01:02:00,67.6,64.3,30.04,North,353,0.0,0.0,89,0.00,,CLR,0.00,VWS V14.01,2013-07-19 05:02:00,
2013-07-19 01:07:00,67.5,64.1,30.04,North,353,0.0,0.0,89,0.00,,CLR,0.00,VWS V14.01,2013-07-19 05:07:00,
2013-07-19 01:12:00,67.5,64.1,30.04,North,353,0.0,0.0,89,0.00,,CLR,0.00,VWS V14.01,2013-07-19 05:12:00,
2013-07-19 01:17:00,67.5,64.1,30.04,North,353,0.0,0.0,89,0.00,,CLR,0.00,VWS V14.01,2013-07-19 05:17:00,
2013-07-19 01:22:00,67.5,64.1,30.04,North,353,0.0,0.0,89,0.00,,CLR,0.00,VWS V14.01,2013-07-19 05:22:00,
2013-07-19 01:27:00,67.3,64.2,30.04,North,353,0.0,0.0,90,0.00,,CLR,0.00,VWS V14.01,2013-07-19 05:27:00,
2013-07-19 01:32:00,67.3,64.2,30.04,North,353,0.0,0.0,90,0.00,,CLR,0.00,VWS V14.01,2013-07-19 05:32:00,
2013-07-19 01:37:00,67.8,64.8,30.04,North,353,0.0,0.0,90,0.00,,CLR,0.00,VWS V14.01,2013-07-19 05:37:00,
2013-07-19 01:42:00,69.3,66.2,30.04,North,353,0.0,0.0,90,0.00,,BKN120,0.00,VWS V14.01,2013-07-19 05:42:00,
2013-07-19 01:47:00,69.3,66.2,30.04,North,353,0.0,0.0,90,0.00,,BKN120,0.00,VWS V14.01,2013-07-19 05:47:00,
2013-07-19 01:52:00,69.6,66.6,30.04,North,353,0.0,0.0,90,0.00,,CLR,0.00,VWS V14.01,2013-07-19 05:52:00,
2013-07-19 01:57:00,69.6,66.6,30.01,North,353,0.0,0.0,90,0.00,,CLR,0.00,VWS V14.01,2013-07-19 05:57:00,
2013-07-19 02:03:00,70.0,66.9,30.01,North,353,0.0,0.0,90,0.00,,CLR,0.00,VWS V14.01,2013-07-19 06:03:00,
2013-07-19 02:08:00,70.0,66.9,30.01,North,353,0.0,0.0,90,0.00,,CLR,0.00,VWS V14.01,2013-07-19 06:08:00,
2013-07-19 02:13:00,70.0,66.9,30.04,North,353,0.0,0.0,90,0.00,,CLR,0.00,VWS V14.01,2013-07-19 06:13:00,
2013-07-19 02:18:00,69.6,66.6,30.04,North,353,0.0,0.0,90,0.00,,CLR,0.00,VWS V14.01,2013-07-19 06:18:00,
2013-07-19 02:23:00,69.6,66.6,30.04,North,353,0.0,0.0,90,0.00,,CLR,0.00,VWS V14.01,2013-07-19 06:23:00,
2013-07-19 02:28:00,70.5,67.4,30.01,North,353,0.0,0.0,90,0.00,,CLR,0.00,VWS V14.01,2013-07-19 06:28:00,
2013-07-19 02:33:00,70.5,67.4,30.01,North,353,0.0,0.0,90,0.00,,CLR,0.00,VWS V14.01,2013-07-19 06:33:00,
2013-07-19 02:38:00,70.7,67.6,30.01,SSE,152,2.2,2.2,90,0.00,,CLR,0.00,VWS V14.01,2013-07-19 06:38:00,
2013-07-19 02:43:00,70.9,67.8,30.01,SSE,152,2.2,2.2,90,0.00,,,0.00,VWS V14.01,2013-07-19 06:43:00,
2013-07-19 02:48:00,70.9,67.8,30.01,SSE,152,2.2,2.2,90,0.00,,,0.00,VWS V14.01,2013-07-19 06:48:00,
2013-07-19 02:53:00,70.9,67.8,30.01,SSE,152,2.2,2.2,90,0.00,,,0.00,VWS V14.01,2013-07-19 06:53:00,
2013-07-19 02:58:00,70.9,67.8,30.01,SSE,152,2.2,2.2,90,0.00,,,0.00,VWS V14.01,2013-07-19 06:58:00,
2013-07-19 03:03:00,71.1,68.0,30.01,SSE,152,2.2,2.2,90,0.00,,,0.00,VWS V14.01,2013-07-19 07:03:00,
2013-07-19 03:08:00,71.1,68.0,30.01,SSE,152,2.2,2.2,90,0.00,,,0.00,VWS V14.01,2013-07-19 07:08:00,
2013-07-19 03:13:00,71.1,68.0,30.01,SSE,152,2.2,2.2,90,0.00,,,0.00,VWS V14.01,2013-07-19 07:13:00,
2013-07-19 03:18:00,71.2,68.2,30.01,SSE,155,0.0,2.2,90,0.00,,,0.00,VWS V14.01,2013-07-19 07:18:00,
2013-07-19 03:23:00,71.2,68.2,30.01,SSE,155,0.0,0.0,90,0.00,,,0.00,VWS V14.01,2013-07-19 07:23:00,
2013-07-19 03:28:00,71.2,68.5,29.98,SSE,155,0.0,0.0,91,0.00,,,0.00,VWS V14.01,2013-07-19 07:28:00,
2013-07-19 03:33:00,71.2,68.5,29.98,South,173,0.0,0.0,91,0.00,,,0.00,VWS V14.01,2013-07-19 07:33:00,
2013-07-19 03:38:00,70.9,68.1,29.98,South,173,0.0,0.0,91,0.00,,,0.00,VWS V14.01,2013-07-19 07:38:00,
2013-07-19 03:43:00,70.3,67.3,29.98,South,173,0.0,0.0,90,0.00,,,0.00,VWS V14.01,2013-07-19 07:43:00,
2013-07-19 03:48:00,70.3,67.3,29.98,South,173,0.0,0.0,90,0.00,,,0.00,VWS V14.01,2013-07-19 07:48:00,
2013-07-19 03:53:00,70.0,67.2,29.98,South,173,0.0,0.0,91,0.00,,,0.00,VWS V14.01,2013-07-19 07:53:00,
2013-07-19 03:58:00,70.0,67.2,29.98,South,173,0.0,0.0,91,0.00,,,0.00,VWS V14.01,2013-07-19 07:58:00,
2013-07-19 04:03:00,70.2,67.4,29.98,South,173,0.0,0.0,91,0.00,,,0.00,VWS V14.01,2013-07-19 08:03:00,
2013-07-19 04:08:00,70.2,67.4,29.98,South,173,0.0,0.0,91,0.00,,,0.00,VWS V14.01,2013-07-19 08:08:00,
2013-07-19 04:13:00,70.3,67.6,29.98,South,173,0.0,0.0,91,0.00,,,0.00,VWS V14.01,2013-07-19 08:13:00,
2013-07-19 04:18:00,70.5,67.8,29.98,South,173,0.0,0.0,91,0.00,,,0.00,VWS V14.01,2013-07-19 08:18:00,
2013-07-19 04:23:00,70.5,67.8,29.98,South,173,0.0,0.0,91,0.00,,,0.00,VWS V14.01,2013-07-19 08:23:00,
2013-07-19 04:28:00,70.7,67.9,29.98,South,173,0.0,0.0,91,0.00,,,0.00,VWS V14.01,2013-07-19 08:28:00,
2013-07-19 04:33:00,70.7,67.9,29.98,South,173,0.0,0.0,91,0.00,,,0.00,VWS V14.01,2013-07-19 08:33:00,
2013-07-19 04:38:00,70.9,68.1,29.98,South,173,0.0,0.0,91,0.00,,,0.00,VWS V14.01,2013-07-19 08:38:00,
2013-07-19 04:43:00,70.9,68.1,29.98,South,173,0.0,0.0,91,0.00,,,0.00,VWS V14.01,2013-07-19 08:43:00,
2013-07-19 04:48:00,71.1,68.3,29.98,South,173,0.0,0.0,91,0.00,,,0.00,VWS V14.01,2013-07-19 08:48:00,
2013-07-19 04:53:00,71.1,68.3,29.98,South,173,0.0,0.0,91,0.00,,,0.00,VWS V14.01,2013-07-19 08:53:00,
2013-07-19 04:58:00,71.1,68.3,29.98,SSE,163,0.0,0.0,91,0.00,,,0.00,VWS V14.01,2013-07-19 08:58:00,
2013-07-19 05:03:00,71.2,68.5,29.98,SSE,163,0.0,0.0,91,0.00,,,0.00,VWS V14.01,2013-07-19 09:03:00,
2013-07-19 05:08:00,71.2,68.5,29.98,SSE,163,0.0,0.0,91,0.00,,,0.00,VWS V14.01,2013-07-19 09:08:00,
2013-07-19 05:13:00,71.2,68.8,29.98,SSE,163,0.0,0.0,92,0.00,,,0.00,VWS V14.01,2013-07-19 09:13:00,
2013-07-19 05:18:00,71.2,68.8,29.98,SSE,163,0.0,0.0,92,0.00,,,0.00,VWS V14.01,2013-07-19 09:18:00,
2013-07-19 05:23:00,71.4,69.0,29.98,SSE,163,0.0,0.0,92,0.00,,,0.00,VWS V14.01,2013-07-19 09:23:00,
2013-07-19 05:28:00,71.4,69.0,29.98,South,173,3.1,3.1,92,0.00,,,0.00,VWS V14.01,2013-07-19 09:28:00,
2013-07-19 05:33:00,71.4,69.0,29.98,South,175,4.0,4.0,92,0.00,,,0.00,VWS V14.01,2013-07-19 09:33:00,
2013-07-19 05:38:00,71.4,69.0,29.98,South,175,4.0,4.0,92,0.00,,,0.00,VWS V14.01,2013-07-19 09:38:00,
2013-07-19 05:43:00,71.4,69.0,29.98,SSE,165,4.0,4.0,92,0.00,,,0.00,VWS V14.01,2013-07-19 09:43:00,
2013-07-19 05:48:00,71.6,69.2,29.98,SSE,165,4.0,4.0,92,0.00,,,0.00,VWS V14.01,2013-07-19 09:48:00,
2013-07-19 05:53:00,71.6,69.2,29.98,SSE,165,4.0,4.0,92,0.00,,,0.00,VWS V14.01,2013-07-19 09:53:00,
2013-07-19 05:58:00,71.6,69.2,29.98,SSE,165,4.0,4.0,92,0.00,,,0.00,VWS V14.01,2013-07-19 09:58:00,
2013-07-19 06:03:00,71.6,69.2,29.98,SSE,165,4.0,4.0,92,0.00,,,0.00,VWS V14.01,2013-07-19 10:03:00,
2013-07-19 06:08:00,71.6,69.2,29.98,SSE,165,4.0,4.0,92,0.00,,,0.00,VWS V14.01,2013-07-19 10:08:00,
2013-07-19 06:13:00,71.6,69.2,29.98,SSE,165,4.0,4.0,92,0.00,,,0.00,VWS V14.01,2013-07-19 10:13:00,
2013-07-19 06:19:00,71.8,69.3,29.98,SSE,165,4.0,4.0,92,0.00,,,0.00,VWS V14.01,2013-07-19 10:19:00,
2013-07-19 06:23:00,71.8,69.3,29.98,SSE,165,4.0,4.0,92,0.00,,,0.00,VWS V14.01,2013-07-19 10:23:00,
2013-07-19 06:29:00,71.8,69.3,29.96,SSE,165,4.0,4.0,92,0.00,,,0.00,VWS V14.01,2013-07-19 10:29:00,
2013-07-19 06:33:00,71.8,69.3,29.96,SSE,165,4.0,4.0,92,0.00,,,0.00,VWS V14.01,2013-07-19 10:33:00,
2013-07-19 06:38:00,72.0,69.5,29.96,SSE,165,4.0,4.0,92,0.00,,,0.00,VWS V14.01,2013-07-19 10:38:00,
2013-07-19 06:43:00,72.0,69.5,29.96,SSE,165,4.0,4.0,92,0.00,,,0.00,VWS V14.01,2013-07-19 10:43:00,
2013-07-19 06:48:00,72.1,69.7,29.96,SSE,165,4.0,4.0,92,0.00,,,0.00,VWS V14.01,2013-07-19 10:48:00,
2013-07-19 06:53:00,72.5,70.1,29.96,SSE,165,4.0,4.0,92,0.00,,,0.00,VWS V14.01,2013-07-19 10:53:00,
2013-07-19 06:58:00,72.5,70.1,29.98,SSE,165,4.0,4.0,92,0.00,,,0.00,VWS V14.01,2013-07-19 10:58:00,
2013-07-19 07:03:00,72.7,70.2,29.98,SSE,164,2.7,2.7,92,0.00,,,0.00,VWS V14.01,2013-07-19 11:03:00,
2013-07-19 07:08:00,72.7,70.2,29.98,SSE,164,2.7,2.7,92,0.00,,,0.00,VWS V14.01,2013-07-19 11:08:00,
2013-07-19 07:14:00,72.9,70.4,29.96,SSE,161,3.1,3.1,92,0.00,,,0.00,VWS V14.01,2013-07-19 11:14:00,
2013-07-19 07:19:00,73.0,70.6,29.96,SSE,161,3.1,3.1,92,0.00,,,0.00,VWS V14.01,2013-07-19 11:19:00,
2013-07-19 07:24:00,73.0,70.6,29.96,SSE,161,3.1,3.1,92,0.00,,,0.00,VWS V14.01,2013-07-19 11:24:00,
2013-07-19 07:29:00,73.2,70.8,29.96,SSE,161,3.1,3.1,92,0.00,,,0.00,VWS V14.01,2013-07-19 11:29:00,
2013-07-19 07:34:00,73.2,70.8,29.96,SSE,161,3.1,3.1,92,0.00,,,0.00,VWS V14.01,2013-07-19 11:34:00,
2013-07-19 07:39:00,73.6,70.8,29.96,SSE,161,3.1,3.1,91,0.00,,,0.00,VWS V14.01,2013-07-19 11:39:00,
2013-07-19 07:44:00,73.6,70.8,29.96,SSE,161,3.1,3.1,91,0.00,,,0.00,VWS V14.01,2013-07-19 11:44:00,
2013-07-19 07:49:00,74.1,71.3,29.96,SSE,161,3.1,3.1,91,0.00,,,0.00,VWS V14.01,2013-07-19 11:49:00,
2013-07-19 07:54:00,74.1,71.3,29.96,SSE,161,3.1,3.1,91,0.00,,,0.00,VWS V14.01,2013-07-19 11:54:00,
2013-07-19 07:59:00,74.1,71.3,29.96,SSE,161,3.1,3.1,91,0.00,,,0.00,VWS V14.01,2013-07-19 11:59:00,
2013-07-19 08:04:00,77.0,73.5,29.96,SSE,161,3.1,3.1,89,0.00,,,0.00,VWS V14.01,2013-07-19 12:04:00,
2013-07-19 08:09:00,77.0,73.5,29.96,SSE,161,3.1,3.1,89,0.00,,,0.00,VWS V14.01,2013-07-19 12:09:00,
2013-07-19 08:14:00,77.4,73.2,29.96,SSE,161,3.1,3.1,87,0.00,,,0.00,VWS V14.01,2013-07-19 12:14:00,
2013-07-19 08:19:00,77.5,73.0,29.96,SSE,161,3.1,3.1,86,0.00,,,0.00,VWS V14.01,2013-07-19 12:19:00,
2013-07-19 08:24:00,77.4,72.5,29.96,SSE,161,3.1,3.1,85,0.00,,,0.00,VWS V14.01,2013-07-19 12:24:00,
2013-07-19 08:29:00,77.7,71.8,29.96,SSE,161,3.1,3.1,82,0.00,,,0.00,VWS V14.01,2013-07-19 12:29:00,
2013-07-19 08:34:00,77.7,71.4,29.96,SSE,161,3.1,3.1,81,0.00,,,0.00,VWS V14.01,2013-07-19 12:34:00,
2013-07-19 08:39:00,77.9,71.2,29.96,SSE,161,3.1,3.1,80,0.00,,,0.00,VWS V14.01,2013-07-19 12:39:00,
2013-07-19 08:44:00,77.9,71.2,29.96,SSE,161,3.1,3.1,80,0.00,,,0.00,VWS V14.01,2013-07-19 12:44:00,
2013-07-19 08:49:00,78.1,69.9,29.96,SSE,161,3.1,3.1,76,0.00,,,0.00,VWS V14.01,2013-07-19 12:49:00,
2013-07-19 08:54:00,77.7,68.4,29.96,SSE,161,3.1,3.1,73,0.00,,,0.00,VWS V14.01,2013-07-19 12:54:00,
2013-07-19 08:59:00,77.7,68.4,29.96,SSE,161,3.1,3.1,73,0.00,,,0.00,VWS V14.01,2013-07-19 12:59:00,
2013-07-19 09:04:00,77.9,68.9,29.96,SE,141,3.6,3.6,74,0.00,,BKN021,0.00,VWS V14.01,2013-07-19 13:04:00,
2013-07-19 09:09:00,77.9,68.9,29.96,SE,141,3.6,3.6,74,0.00,,BKN021,0.00,VWS V14.01,2013-07-19 13:09:00,
2013-07-19 09:14:00,78.4,69.1,29.96,SE,141,3.6,3.6,73,0.00,,BKN021,0.00,VWS V14.01,2013-07-19 13:14:00,
2013-07-19 09:19:00,78.6,69.2,29.96,SE,141,3.6,3.6,73,0.00,,BKN021,0.00,VWS V14.01,2013-07-19 13:19:00,
2013-07-19 09:24:00,78.6,68.8,29.96,SE,141,3.6,3.6,72,0.00,,BKN021,0.00,VWS V14.01,2013-07-19 13:24:00,
2013-07-19 09:26:00,78.6,68.8,29.96,SE,141,3.6,3.6,72,0.00,,BKN021,0.00,VWS V14.01,2013-07-19 13:26:00,
2013-07-19 09:31:00,78.6,68.8,29.96,SE,141,3.6,3.6,72,0.00,,BKN021,0.00,VWS V14.01,2013-07-19 13:31:00,
2013-07-19 09:36:00,78.6,68.8,29.96,SE,141,3.6,3.6,72,0.00,,BKN021,0.00,VWS V14.01,2013-07-19 13:36:00,
2013-07-19 09:41:00,79.0,67.9,29.96,SE,141,3.6,3.6,69,0.00,,OVC036,0.00,VWS V14.01,2013-07-19 13:41:00,
2013-07-19 09:46:00,79.0,67.9,29.96,SE,141,3.6,3.6,69,0.00,,OVC036,0.00,VWS V14.01,2013-07-19 13:46:00,
2013-07-19 09:52:00,79.0,67.9,29.96,SE,141,3.6,3.6,69,0.00,,OVC036,0.00,VWS V14.01,2013-07-19 13:52:00,
2013-07-19 09:57:00,79.3,67.9,29.96,SE,141,3.6,3.6,68,0.00,,OVC036,0.00,VWS V14.01,2013-07-19 13:57:00,
2013-07-19 10:02:00,79.3,67.9,29.96,SE,141,3.6,3.6,68,0.00,,OVC036,0.00,VWS V14.01,2013-07-19 14:02:00,
2013-07-19 10:07:00,80.2,67.9,29.96,SSE,164,7.6,7.6,66,0.00,,OVC036,0.00,VWS V14.01,2013-07-19 14:07:00,
2013-07-19 10:12:00,80.1,67.2,29.96,SSE,164,7.6,7.6,65,0.00,,OVC036,0.00,VWS V14.01,2013-07-19 14:12:00,
2013-07-19 10:17:00,80.1,67.2,29.93,SSE,164,7.6,7.6,65,0.00,,OVC036,0.00,VWS V14.01,2013-07-19 14:17:00,
2013-07-19 10:22:00,81.0,67.7,29.93,SSE,164,7.6,7.6,64,0.00,,OVC036,0.00,VWS V14.01,2013-07-19 14:22:00,
2013-07-19 10:27:00,81.0,67.7,29.93,SSE,164,7.6,7.6,64,0.00,,OVC036,0.00,VWS V14.01,2013-07-19 14:27:00,
2013-07-19 10:32:00,82.0,68.2,29.93,SSE,164,7.6,7.6,63,0.00,,OVC036,0.00,VWS V14.01,2013-07-19 14:32:00,
2013-07-19 10:37:00,82.0,68.2,29.93,SSE,164,7.6,7.6,63,0.00,,OVC036,0.00,VWS V14.01,2013-07-19 14:37:00,
2013-07-19 10:42:00,82.0,68.2,29.93,SSE,164,7.6,7.6,63,0.00,,OVC043,0.00,VWS V14.01,2013-07-19 14:42:00,
2013-07-19 10:47:00,83.5,68.2,29.93,SSE,157,6.3,7.6,60,0.00,,OVC043,0.00,VWS V14.01,2013-07-19 14:47:00,
2013-07-19 10:52:00,83.5,68.2,29.93,SSE,157,6.3,6.3,60,0.00,,OVC043,0.00,VWS V14.01,2013-07-19 14:52:00,
2013-07-19 10:57:00,82.6,63.2,29.93,SSE,157,6.3,6.3,52,0.00,,OVC043,0.00,VWS V14.01,2013-07-19 14:57:00,
2013-07-19 11:02:00,82.6,63.2,29.93,SSE,157,6.3,6.3,52,0.00,,OVC043,0.00,VWS V14.01,2013-07-19 15:02:00,
2013-07-19 11:07:00,82.8,63.9,29.93,SSE,157,6.3,6.3,53,0.00,,OVC043,0.00,VWS V14.01,2013-07-19 15:07:00,
2013-07-19 11:12:00,82.8,63.9,29.93,SSE,157,6.3,6.3,53,0.00,,OVC043,0.00,VWS V14.01,2013-07-19 15:12:00,
2013-07-19 11:17:00,82.8,63.9,29.93,SSE,157,6.3,6.3,53,0.00,,OVC043,0.00,VWS V14.01,2013-07-19 15:17:00,
2013-07-19 11:22:00,84.2,64.7,29.93,SSE,157,6.3,6.3,52,0.00,,OVC043,0.00,VWS V14.01,2013-07-19 15:22:00,
2013-07-19 11:27:00,84.2,64.7,29.93,SSE,157,6.3,6.3,52,0.00,,OVC043,0.00,VWS V14.01,2013-07-19 15:27:00,
2013-07-19 11:32:00,84.9,65.3,29.93,WSW,243,3.6,4.0,52,0.00,,OVC043,0.00,VWS V14.01,2013-07-19 15:32:00,
2013-07-19 11:37:00,84.9,65.3,29.93,WSW,243,3.6,4.0,52,0.00,,OVC043,0.00,VWS V14.01,2013-07-19 15:37:00,
2013-07-19 11:42:00,84.6,62.7,29.93,South,181,4.9,4.9,48,0.00,,OVC048,0.00,VWS V14.01,2013-07-19 15:42:00,
2013-07-19 11:47:00,84.7,63.5,29.93,South,181,4.9,4.9,49,0.00,,OVC048,0.00,VWS V14.01,2013-07-19 15:47:00,
2013-07-19 11:52:00,84.7,63.5,29.93,South,181,4.9,4.9,49,0.00,,OVC048,0.00,VWS V14.01,2013-07-19 15:52:00,
2013-07-19 11:57:00,84.7,63.5,29.93,South,174,6.3,6.3,49,0.00,,OVC048,0.00,VWS V14.01,2013-07-19 15:57:00,
2013-07-19 12:02:00,85.6,62.5,29.93,South,185,7.6,7.6,46,0.00,,OVC048,0.00,VWS V14.01,2013-07-19 16:02:00,
2013-07-19 12:07:00,85.6,62.5,29.93,SSE,168,6.3,7.6,46,0.00,,OVC048,0.00,VWS V14.01,2013-07-19 16:07:00,
2013-07-19 12:12:00,85.6,62.5,29.93,SSE,168,6.3,6.3,46,0.00,,OVC048,0.00,VWS V14.01,2013-07-19 16:12:00,
2013-07-19 12:17:00,86.0,62.8,29.90,WNW,293,5.8,6.3,46,0.00,,OVC048,0.00,VWS V14.01,2013-07-19 16:17:00,
2013-07-19 12:22:00,86.7,62.2,29.90,WNW,293,5.8,5.8,44,0.00,,OVC048,0.00,VWS V14.01,2013-07-19 16:22:00,
2013-07-19 12:27:00,86.7,62.2,29.90,SW,220,4.0,5.8,44,0.00,,OVC048,0.00,VWS V14.01,2013-07-19 16:27:00,
2013-07-19 12:32:00,86.9,62.4,29.90,SW,220,4.0,4.0,44,0.00,,OVC048,0.00,VWS V14.01,2013-07-19 16:32:00,
2013-07-19 12:37:00,86.9,62.4,29.90,South,171,5.4,5.4,44,0.00,,OVC048,0.00,VWS V14.01,2013-07-19 16:37:00,
2013-07-19 12:42:00,87.4,63.5,29.90,South,171,5.4,5.4,45,0.00,,BKN060,0.00,VWS V14.01,2013-07-19 16:42:00,
2013-07-19 12:47:00,88.2,62.2,29.90,South,171,5.4,5.4,42,0.00,,BKN060,0.00,VWS V14.01,2013-07-19 16:47:00,
2013-07-19 12:52:00,88.2,62.2,29.90,SW,214,6.3,6.3,42,0.00,,BKN060,0.00,VWS V14.01,2013-07-19 16:52:00,
2013-07-19 12:57:00,88.2,62.2,29.90,SW,214,6.3,6.3,42,0.00,,BKN060,0.00,VWS V14.01,2013-07-19 16:57:00,
2013-07-19 13:02:00,88.2,62.2,29.90,SE,141,2.7,2.7,42,0.00,,BKN060,0.00,VWS V14.01,2013-07-19 17:02:00,
2013-07-19 13:07:00,87.1,60.5,29.90,SE,141,2.7,2.7,41,0.00,,BKN060,0.00,VWS V14.01,2013-07-19 17:07:00,
2013-07-19 13:12:00,87.1,60.5,29.90,SSE,153,7.2,7.2,41,0.00,,BKN060,0.00,VWS V14.01,2013-07-19 17:12:00,
2013-07-19 13:17:00,87.1,60.5,29.90,SSE,153,7.2,7.2,41,0.00,,BKN060,0.00,VWS V14.01,2013-07-19 17:17:00,
2013-07-19 13:22:00,86.5,60.7,29.90,South,173,5.8,7.2,42,0.00,,BKN060,0.00,VWS V14.01,2013-07-19 17:22:00,
2013-07-19 13:27:00,86.5,60.7,29.90,SSW,203,5.4,7.2,42,0.00,,BKN060,0.00,VWS V14.01,2013-07-19 17:27:00,
2013-07-19 13:32:00,86.4,60.6,29.90,South,169,8.3,8.3,42,0.00,,BKN060,0.00,VWS V14.01,2013-07-19 17:32:00,
2013-07-19 13:37:00,86.7,60.2,29.90,South,169,8.3,8.3,41,0.00,,BKN060,0.00,VWS V14.01,2013-07-19 17:37:00,
2013-07-19 13:42:00,87.1,60.5,29.90,SSE,168,8.7,8.7,41,0.00,,BKN070,0.00,VWS V14.01,2013-07-19 17:42:00,
2013-07-19 13:47:00,87.6,60.3,29.90,SSE,168,8.7,8.7,40,0.00,,BKN070,0.00,VWS V14.01,2013-07-19 17:47:00,
2013-07-19 13:52:00,87.6,60.3,29.90,SSE,168,8.7,8.7,40,0.00,,BKN070,0.00,VWS V14.01,2013-07-19 17:52:00,
2013-07-19 13:57:00,88.0,59.2,29.87,SSE,164,8.1,8.7,38,0.00,,BKN070,0.00,VWS V14.01,2013-07-19 17:57:00,
2013-07-19 14:02:00,88.0,59.2,29.87,SSE,164,8.1,8.1,38,0.00,,BKN070,0.00,VWS V14.01,2013-07-19 18:02:00,
2013-07-19 14:07:00,87.6,59.6,29.87,SSE,154,9.6,9.6,39,0.00,,BKN070,0.00,VWS V14.01,2013-07-19 18:07:00,
2013-07-19 14:12:00,87.6,59.6,29.87,SSE,168,7.2,9.6,39,0.00,,BKN070,0.00,VWS V14.01,2013-07-19 18:12:00,
2013-07-19 14:17:00,87.1,59.8,29.87,SSE,158,5.4,9.6,40,0.00,,BKN070,0.00,VWS V14.01,2013-07-19 18:17:00,
2013-07-19 14:18:00,87.1,59.8,29.87,SSE,158,5.4,9.6,40,0.00,,BKN070,0.00,VWS V14.01,2013-07-19 18:18:00,
2013-07-19 14:23:00,87.1,59.2,29.87,SSE,160,6.3,6.3,39,0.00,,BKN070,0.00,VWS V14.01,2013-07-19 18:23:00,
2013-07-19 14:28:00,87.1,59.2,29.87,South,171,5.8,6.3,39,0.00,,BKN070,0.00,VWS V14.01,2013-07-19 18:28:00,
2013-07-19 14:33:00,87.1,60.5,29.87,WSW,239,2.7,2.7,41,0.00,,BKN070,0.00,VWS V14.01,2013-07-19 18:33:00,
2013-07-19 14:38:00,87.1,60.5,29.87,SSE,158,5.4,5.4,41,0.00,,BKN070,0.00,VWS V14.01,2013-07-19 18:38:00,
2013-07-19 14:43:00,87.1,60.5,29.87,SSE,165,3.1,3.1,41,0.00,,BKN060,0.00,VWS V14.01,2013-07-19 18:43:00,
2013-07-19 14:48:00,87.3,60.7,29.87,SSE,165,3.1,3.1,41,0.00,,BKN060,0.00,VWS V14.01,2013-07-19 18:48:00,
2013-07-19 14:53:00,87.3,60.0,29.87,SSE,157,8.3,8.3,40,0.00,,BKN060,0.00,VWS V14.01,2013-07-19 18:53:00,
2013-07-19 14:58:00,86.7,59.5,29.84,SSE,157,8.3,8.3,40,0.00,,BKN060,0.00,VWS V14.01,2013-07-19 18:58:00,
2013-07-19 15:03:00,85.6,59.3,29.84,South,169,4.0,4.0,41,0.00,,BKN060,0.00,VWS V14.01,2013-07-19 19:03:00,
2013-07-19 15:08:00,86.0,60.3,29.84,South,169,4.0,4.0,42,0.00,,BKN060,0.00,VWS V14.01,2013-07-19 19:08:00,
2013-07-19 15:13:00,86.9,61.1,29.84,SSE,167,5.4,5.4,42,0.00,,BKN060,0.00,VWS V14.01,2013-07-19 19:13:00,
2013-07-19 15:18:00,87.1,60.5,29.84,SSE,167,5.4,5.4,41,0.00,,BKN060,0.00,VWS V14.01,2013-07-19 19:18:00,
2013-07-19 15:23:00,87.8,60.5,29.84,SSE,166,5.4,5.4,40,0.00,,BKN060,0.00,VWS V14.01,2013-07-19 19:23:00,
2013-07-19 15:28:00,87.8,59.8,29.84,SSE,166,5.4,5.4,39,0.00,,BKN060,0.00,VWS V14.01,2013-07-19 19:28:00,
2013-07-19 15:33:00,87.6,59.6,29.84,SSE,156,4.0,5.4,39,0.00,,BKN060,0.00,VWS V14.01,2013-07-19 19:33:00,
2013-07-19 15:38:00,87.6,60.3,29.84,SSE,156,4.0,5.4,40,0.00,,BKN060,0.00,VWS V14.01,2013-07-19 19:38:00,
2013-07-19 15:43:00,87.6,60.3,29.84,SSE,167,5.8,5.8,40,0.00,,FEW045,0.00,VWS V14.01,2013-07-19 19:43:00,
2013-07-19 15:48:00,87.6,60.3,29.84,SSE,167,5.8,5.8,40,0.00,,FEW045,0.00,VWS V14.01,2013-07-19 19:48:00,
2013-07-19 15:53:00,87.1,59.8,29.84,SSE,167,5.8,5.8,40,0.00,,FEW045,0.00,VWS V14.01,2013-07-19 19:53:00,
2013-07-19 15:58:00,86.7,59.5,29.84,SSE,165,4.0,5.8,40,0.00,,FEW045,0.00,VWS V14.01,2013-07-19 19:58:00,
2013-07-19 16:03:00,86.5,60.1,29.84,South,174,8.7,8.7,41,0.00,,FEW045,0.00,VWS V14.01,2013-07-19 20:03:00,
2013-07-19 16:08:00,85.6,59.9,29.84,West,276,3.6,8.7,42,0.00,,FEW045,0.00,VWS V14.01,2013-07-19 20:08:00,
2013-07-19 16:13:00,85.1,59.5,29.84,West,276,3.6,3.6,42,0.00,,FEW045,0.00,VWS V14.01,2013-07-19 20:13:00,
2013-07-19 16:18:00,84.9,59.3,29.84,SE,141,10.5,10.5,42,0.00,,FEW045,0.00,VWS V14.01,2013-07-19 20:18:00,
2013-07-19 16:23:00,84.6,59.6,29.84,SE,141,10.5,10.5,43,0.00,,FEW045,0.00,VWS V14.01,2013-07-19 20:23:00,
2013-07-19 16:28:00,84.6,59.6,29.84,SE,141,10.5,10.5,43,0.00,,FEW045,0.00,VWS V14.01,2013-07-19 20:28:00,
2013-07-19 16:33:00,83.5,60.5,29.84,SE,141,10.5,10.5,46,0.00,,FEW045,0.00,VWS V14.01,2013-07-19 20:33:00,
2013-07-19 16:38:00,82.8,62.8,29.84,SSE,159,6.3,10.5,51,0.00,,FEW045,0.00,VWS V14.01,2013-07-19 20:38:00,
2013-07-19 16:43:00,82.8,63.4,29.84,SSE,159,6.3,6.3,52,0.00,,SCT055,0.00,VWS V14.01,2013-07-19 20:43:00,
2013-07-19 16:48:00,82.9,64.1,29.84,South,173,5.4,6.3,53,0.00,,SCT055,0.00,VWS V14.01,2013-07-19 20:48:00,
2013-07-19 16:53:00,82.9,64.1,29.84,SSE,161,4.9,4.9,53,0.00,,SCT055,0.00,VWS V14.01,2013-07-19 20:53:00,
2013-07-19 16:58:00,82.9,64.6,29.84,South,169,8.3,8.3,54,0.00,,SCT055,0.00,VWS V14.01,2013-07-19 20:58:00,
2013-07-19 17:03:00,83.1,64.8,29.84,SSW,193,8.1,8.1,54,0.00,,SCT055,0.00,VWS V14.01,2013-07-19 21:03:00,
2013-07-19 17:08:00,83.3,64.9,29.84,SSW,193,8.1,8.1,54,0.00,,SCT055,0.00,VWS V14.01,2013-07-19 21:08:00,
2013-07-19 17:13:00,83.7,63.6,29.84,SSE,153,8.3,8.3,51,0.00,,SCT055,0.00,VWS V14.01,2013-07-19 21:13:00,
2013-07-19 17:18:00,83.7,63.6,29.84,SSE,153,8.3,8.3,51,0.00,,SCT055,0.00,VWS V14.01,2013-07-19 21:18:00,
2013-07-19 17:23:00,83.7,63.6,29.84,SSE,162,8.3,8.3,51,0.00,,SCT055,0.00,VWS V14.01,2013-07-19 21:23:00,
2013-07-19 17:28:00,83.8,63.2,29.81,South,183,5.8,8.3,50,0.00,,SCT055,0.00,VWS V14.01,2013-07-19 21:28:00,
2013-07-19 17:33:00,84.0,63.4,29.81,SSE,166,4.5,5.8,50,0.00,,SCT055,0.00,VWS V14.01,2013-07-19 21:33:00,
2013-07-19 17:38:00,84.0,63.4,29.81,SSE,166,4.5,5.8,50,0.00,,SCT055,0.00,VWS V14.01,2013-07-19 21:38:00,
2013-07-19 17:43:00,84.6,62.1,29.84,South,181,7.6,7.6,47,0.00,,SCT065,0.00,VWS V14.01,2013-07-19 21:43:00,
2013-07-19 17:48:00,84.6,62.1,29.84,SW,218,4.0,7.6,47,0.00,,SCT065,0.00,VWS V14.01,2013-07-19 21:48:00,
2013-07-19 17:53:00,84.6,62.1,29.84,SSE,165,5.8,5.8,47,0.00,,SCT065,0.00,VWS V14.01,2013-07-19 21:53:00,
2013-07-19 17:58:00,84.6,61.5,29.84,SSE,156,7.2,7.2,46,0.00,,SCT065,0.00,VWS V14.01,2013-07-19 21:58:00,
2013-07-19 18:03:00,84.6,61.5,29.84,SSE,166,11.0,11.0,46,0.00,,SCT065,0.00,VWS V14.01,2013-07-19 22:03:00,
2013-07-19 18:08:00,84.7,61.7,29.84,SSE,168,4.0,11.0,46,0.00,,SCT065,0.00,VWS V14.01,2013-07-19 22:08:00,
2013-07-19 18:13:00,84.4,60.1,29.84,South,180,8.1,8.1,44,0.00,,SCT065,0.00,VWS V14.01,2013-07-19 22:13:00,
2013-07-19 18:18:00,84.4,60.1,29.84,South,185,3.6,8.1,44,0.00,,SCT065,0.00,VWS V14.01,2013-07-19 22:18:00,
2013-07-19 18:23:00,84.0,60.4,29.84,South,185,3.6,3.6,45,0.00,,SCT065,0.00,VWS V14.01,2013-07-19 22:23:00,
2013-07-19 18:28:00,84.0,60.4,29.84,South,173,2.2,8.3,45,0.00,,SCT065,0.00,VWS V14.01,2013-07-19 22:28:00,
2013-07-19 18:33:00,83.7,60.1,29.84,South,173,2.2,2.2,45,0.00,,SCT065,0.00,VWS V14.01,2013-07-19 22:33:00,
2013-07-19 18:38:00,83.7,60.1,29.84,South,173,0.0,8.7,45,0.00,,SCT065,0.00,VWS V14.01,2013-07-19 22:38:00,
2013-07-19 18:43:00,82.8,59.9,29.84,South,173,0.0,0.0,46,0.00,,BKN080,0.00,VWS V14.01,2013-07-19 22:43:00,
2013-07-19 18:48:00,77.4,57.3,29.84,SW,227,5.4,5.4,50,0.12,,BKN080,0.12,VWS V14.01,2013-07-19 22:48:00,
2013-07-19 18:53:00,77.4,57.3,29.84,North,350,4.0,4.0,50,0.12,,BKN080,0.12,VWS V14.01,2013-07-19 22:53:00,
2013-07-19 18:58:00,73.0,59.3,29.84,North,357,2.2,4.0,62,0.16,,BKN080,0.16,VWS V14.01,2013-07-19 22:58:00,
2013-07-19 19:03:00,73.0,59.3,29.84,South,180,0.0,3.1,62,0.16,,BKN080,0.16,VWS V14.01,2013-07-19 23:03:00,
2013-07-19 19:08:00,72.0,59.6,29.84,South,180,0.0,3.1,65,0.16,,BKN080,0.16,VWS V14.01,2013-07-19 23:08:00,
2013-07-19 19:13:00,71.8,61.5,29.84,South,180,0.0,0.0,70,0.16,,BKN080,0.16,VWS V14.01,2013-07-19 23:13:00,
2013-07-19 19:18:00,71.8,61.5,29.84,South,180,0.0,0.0,70,0.16,,BKN080,0.16,VWS V14.01,2013-07-19 23:18:00,
2013-07-19 19:24:00,72.0,62.0,29.84,SSW,204,0.0,0.0,71,0.16,,BKN080,0.16,VWS V14.01,2013-07-19 23:24:00,
2013-07-19 19:29:00,72.0,62.0,29.84,SSW,204,0.0,0.0,71,0.16,,BKN080,0.16,VWS V14.01,2013-07-19 23:29:00,
2013-07-19 19:33:00,72.0,62.0,29.84,North,357,5.8,5.8,71,0.16,,BKN080,0.16,VWS V14.01,2013-07-19 23:33:00,
2013-07-19 19:38:00,72.0,62.0,29.84,NW,321,4.0,5.8,71,0.16,,BKN080,0.16,VWS V14.01,2013-07-19 23:38:00,
2013-07-19 19:44:00,71.6,64.4,29.90,NW,321,4.0,4.0,78,0.16,,RA,0.16,VWS V14.01,2013-07-19 23:44:00,
2013-07-19 19:49:00,70.9,63.7,29.90,NNW,338,8.1,8.1,78,0.16,,RA,0.16,VWS V14.01,2013-07-19 23:49:00,
2013-07-19 19:54:00,70.5,63.7,29.90,NNW,338,8.1,8.1,79,0.04,,-RA,0.16,VWS V14.01,2013-07-19 23:54:00,
2013-07-19 19:59:00,70.5,63.7,29.90,NNW,338,8.1,8.1,79,0.04,,-RA,0.16,VWS V14.01,2013-07-19 23:59:00,
2013-07-19 20:04:00,70.5,63.7,29.90,SSE,163,2.7,8.1,79,0.00,,-RA,0.16,VWS V14.01,2013-07-20 00:04:00,
2013-07-19 20:09:00,70.0,63.5,29.90,South,171,0.0,8.1,80,0.04,,-RA,0.20,VWS V14.01,2013-07-20 00:09:00,
2013-07-19 20:14:00,70.0,63.5,29.87,South,171,0.0,0.0,80,0.04,,BKN110,0.20,VWS V14.01,2013-07-20 00:14:00,
2013-07-19 20:19:00,69.8,63.7,29.87,South,171,0.0,0.0,81,0.04,,BKN110,0.20,VWS V14.01,2013-07-20 00:19:00,
2013-07-19 20:24:00,69.8,63.7,29.87,South,171,0.0,0.0,81,0.04,,BKN110,0.20,VWS V14.01,2013-07-20 00:24:00,
2013-07-19 20:29:00,69.8,63.7,29.87,South,171,0.0,0.0,81,0.04,,BKN110,0.20,VWS V14.01,2013-07-20 00:29:00,
2013-07-19 20:34:00,69.3,64.6,29.87,South,171,0.0,0.0,85,0.04,,BKN110,0.20,VWS V14.01,2013-07-20 00:34:00,
2013-07-19 20:39:00,69.3,64.6,29.87,SW,225,0.0,0.0,85,0.04,,BKN110,0.20,VWS V14.01,2013-07-20 00:39:00,
2013-07-19 20:44:00,69.3,64.6,29.87,SW,225,0.0,0.0,85,0.04,,BKN110,0.20,VWS V14.01,2013-07-20 00:44:00,
2013-07-19 20:49:00,69.3,64.6,29.87,SW,225,0.0,0.0,85,0.04,,BKN110,0.20,VWS V14.01,2013-07-20 00:49:00,
2013-07-19 20:54:00,69.3,64.6,29.87,SSE,165,0.0,0.0,85,0.04,,BKN110,0.20,VWS V14.01,2013-07-20 00:54:00,
2013-07-19 20:59:00,69.3,65.2,29.87,SSE,165,0.0,0.0,87,0.04,,BKN110,0.20,VWS V14.01,2013-07-20 00:59:00,
2013-07-19 21:04:00,69.3,65.2,29.87,SSE,165,0.0,0.0,87,0.04,,BKN110,0.20,VWS V14.01,2013-07-20 01:04:00,
2013-07-19 21:09:00,69.3,65.2,29.87,SSE,165,0.0,0.0,87,0.04,,BKN110,0.20,VWS V14.01,2013-07-20 01:09:00,
2013-07-19 21:14:00,69.3,65.2,29.87,South,178,3.1,3.1,87,0.00,,BKN110,0.20,VWS V14.01,2013-07-20 01:14:00,
2013-07-19 21:19:00,69.4,65.7,29.87,South,178,3.1,3.1,88,0.00,,BKN110,0.20,VWS V14.01,2013-07-20 01:19:00,
2013-07-19 21:24:00,69.4,65.7,29.87,South,170,2.7,3.1,88,0.00,,BKN110,0.20,VWS V14.01,2013-07-20 01:24:00,
2013-07-19 21:29:00,69.4,65.7,29.87,South,170,2.7,3.1,88,0.00,,BKN110,0.20,VWS V14.01,2013-07-20 01:29:00,
2013-07-19 21:34:00,69.4,65.7,29.87,South,176,3.6,3.6,88,0.00,,BKN110,0.20,VWS V14.01,2013-07-20 01:34:00,
2013-07-19 21:39:00,69.4,65.7,29.87,South,175,3.1,3.6,88,0.00,,BKN110,0.20,VWS V14.01,2013-07-20 01:39:00,
2013-07-19 21:44:00,69.6,65.9,29.87,South,175,3.1,3.1,88,0.00,,FEW085,0.20,VWS V14.01,2013-07-20 01:44:00,
2013-07-19 21:49:00,69.6,65.9,29.87,SE,143,0.0,3.1,88,0.00,,FEW085,0.20,VWS V14.01,2013-07-20 01:49:00,
2013-07-19 21:54:00,69.6,65.9,29.87,SE,143,0.0,0.0,88,0.08,,OVC085,0.28,VWS V14.01,2013-07-20 01:54:00,
2013-07-19 21:59:00,69.6,65.9,29.87,SE,143,0.0,0.0,88,0.08,,OVC085,0.28,VWS V14.01,2013-07-20 01:59:00,
2013-07-19 22:04:00,69.6,65.9,29.87,South,182,4.9,4.9,88,0.08,,OVC085,0.28,VWS V14.01,2013-07-20 02:04:00,
2013-07-19 22:09:00,69.8,66.1,29.87,South,182,4.9,4.9,88,0.08,,OVC085,0.28,VWS V14.01,2013-07-20 02:09:00,
2013-07-19 22:14:00,69.8,66.1,29.84,South,182,4.9,4.9,88,0.08,,OVC085,0.28,VWS V14.01,2013-07-20 02:14:00,
2013-07-19 22:19:00,70.2,66.4,29.84,SSW,199,2.7,4.9,88,0.08,,OVC085,0.28,VWS V14.01,2013-07-20 02:19:00,
2013-07-19 22:24:00,70.2,66.4,29.84,SSW,199,2.7,2.7,88,0.08,,OVC085,0.28,VWS V14.01,2013-07-20 02:24:00,
2013-07-19 22:29:00,70.2,66.4,29.87,SSE,156,4.9,4.9,88,0.08,,OVC085,0.28,VWS V14.01,2013-07-20 02:29:00,
2013-07-19 22:34:00,70.2,66.4,29.87,SSE,156,4.9,4.9,88,0.08,,OVC085,0.28,VWS V14.01,2013-07-20 02:34:00,
2013-07-19 22:39:00,70.2,66.4,29.87,SSE,166,2.7,4.9,88,0.08,,OVC085,0.28,VWS V14.01,2013-07-20 02:39:00,
2013-07-19 22:44:00,70.2,66.4,29.87,SSE,166,2.7,2.7,88,0.08,,BKN100,0.28,VWS V14.01,2013-07-20 02:44:00,
2013-07-19 22:49:00,70.2,66.4,29.87,SSE,166,2.7,2.7,88,0.08,,BKN100,0.28,VWS V14.01,2013-07-20 02:49:00,
2013-07-19 22:54:00,70.2,66.4,29.87,SSE,166,2.7,2.7,88,0.08,,BKN100,0.28,VWS V14.01,2013-07-20 02:54:00,
2013-07-19 22:59:00,70.2,66.4,29.84,SSE,166,2.7,2.7,88,0.08,,BKN100,0.28,VWS V14.01,2013-07-20 02:59:00,
2013-07-19 23:04:00,70.2,66.4,29.84,SSE,166,2.2,2.7,88,0.00,,BKN100,0.28,VWS V14.01,2013-07-20 03:04:00,
2013-07-19 23:09:00,69.3,65.2,29.84,SSE,166,0.0,2.7,87,0.00,,BKN100,0.28,VWS V14.01,2013-07-20 03:09:00,
2013-07-19 23:14:00,69.3,65.2,29.84,SSE,166,0.0,0.0,87,0.00,,BKN100,0.28,VWS V14.01,2013-07-20 03:14:00,
2013-07-19 23:19:00,69.1,65.1,29.84,SSE,166,0.0,0.0,87,0.00,,BKN100,0.28,VWS V14.01,2013-07-20 03:19:00,
2013-07-19 23:24:00,68.9,65.2,29.84,SSE,164,2.2,2.7,88,0.00,,BKN100,0.28,VWS V14.01,2013-07-20 03:24:00,
2013-07-19 23:29:00,68.9,65.2,29.84,SSE,164,2.2,2.7,88,0.00,,BKN100,0.28,VWS V14.01,2013-07-20 03:29:00,
2013-07-19 23:34:00,68.9,65.2,29.84,SSE,164,2.2,2.2,88,0.00,,BKN100,0.28,VWS V14.01,2013-07-20 03:34:00,
2013-07-19 23:39:00,68.9,65.2,29.84,South,178,4.0,4.0,88,0.00,,BKN100,0.28,VWS V14.01,2013-07-20 03:39:00,
2013-07-19 23:44:00,68.5,64.8,29.84,South,178,4.0,4.0,88,0.00,,-RA,0.28,VWS V14.01,2013-07-20 03:44:00,
2013-07-19 23:49:00,68.5,64.8,29.84,South,172,3.1,4.0,88,0.00,,-RA,0.28,VWS V14.01,2013-07-20 03:49:00,
2013-07-19 23:54:00,68.4,64.7,29.84,South,172,3.1,3.1,88,0.00,,-RA,0.28,VWS V14.01,2013-07-20 03:54:00,
2013-07-19 23:59:00,68.0,64.6,29.84,SSE,164,0.0,3.1,89,0.00,,-RA,0.28,VWS V14.01,2013-07-20 03:59:00,